Batman, Turkey

7:00 AM +03 on March 29, 2017 (GMT +0300)
Batman Air Base

Weather History for LTCJ - May, 2014

Change the Weather History Date:

Thursday, May 8, 2014

  Actual Average (LTCC) Record (LTCC)
Temperature  
Mean Temperature 76 °F -  
Max Temperature 91 °F 76 °F 88 °F (2014)
Min Temperature 61 °F 49 °F 40 °F (2015)
Cooling Degree Days 11    
Growing Degree Days 26 (Base 50)    
Moisture  
Dew Point 46 °F    
Average Humidity 34    
Maximum Humidity 72    
Minimum Humidity 7    
Precipitation  
Precipitation 0.00 in - - ()
Sea Level Pressure  
Sea Level Pressure 29.81 in    
Wind  
Wind Speed 7 mph ()    
Max Wind Speed 25 mph    
Max Gust Speed 38 mph    
Visibility 7.4 miles    
Events      
Averages and records for this station are not official NWS values.
T = Trace of Precipitation, MM = Missing Value Source: Averaged Metar Reports

Daily Weather History Graph

Daily Weather History Graph

Search for Another Location

Airport or City:

Trip Planner

Search our weather history database for the weather conditions in past years. The results will help you decide how hot, cold, wet, or windy it might be!

Date:

Astronomy

May. 08, 2014 Rise Set
Actual Time 5:12 AM EEST 7:12 PM EEST
Civil Twilight 4:43 AM EEST 7:41 PM EEST
Nautical Twilight 4:08 AM EEST 8:16 PM EEST
Astronomical Twilight 3:30 AM EEST 8:54 PM EEST
Moon 12:59 PM EEST (5/8) 1:25 AM EEST (5/8)
Length of Visible Light 14h 57m
Length of Day
13h 59m
First Quarter, 62% of the Moon is Illuminated
May 8
First Quarter
May 14
Full
May 21
Last Quarter
May 28
New
Jun 5
First Quarter

Hourly Weather History & Observations

Time (EEST) Temp. Dew Point Humidity Pressure Visibility Wind Dir Wind Speed Gust Speed Precip Events Conditions
12:20 AM 68.0 °F 48.2 °F 49% 29.86 in 6.2 mi Variable 1.2 mph - N/A   Mostly Cloudy
12:50 AM 62.6 °F 50.0 °F 63% 29.86 in 6.2 mi SW 4.6 mph - N/A   Mostly Cloudy
1:20 AM 62.6 °F 50.0 °F 63% 29.86 in 6.2 mi Variable 2.3 mph - N/A   Mostly Cloudy
1:50 AM 62.6 °F 50.0 °F 63% 29.86 in 6.2 mi SW 9.2 mph - N/A   Mostly Cloudy
2:20 AM 62.6 °F 50.0 °F 63% 29.86 in 6.2 mi SSW 4.6 mph - N/A   Mostly Cloudy
3:20 AM 60.8 °F 50.0 °F 68% 29.86 in 6.2 mi South 3.5 mph - N/A   Mostly Cloudy
3:50 AM 60.8 °F 51.8 °F 72% 29.86 in 6.2 mi NE 4.6 mph - N/A   Mostly Cloudy
4:20 AM 62.6 °F 50.0 °F 63% 29.86 in 6.2 mi Variable 2.3 mph - N/A   Mostly Cloudy
4:50 AM 60.8 °F 51.8 °F 72% 29.86 in 6.2 mi Variable 6.9 mph - N/A   Mostly Cloudy
5:20 AM 62.6 °F 51.8 °F 68% 29.86 in 6.2 mi Variable 5.8 mph - N/A   Mostly Cloudy
5:50 AM 62.6 °F 51.8 °F 68% 29.89 in 6.2 mi SSW 5.8 mph - N/A   Mostly Cloudy
6:20 AM 62.6 °F 51.8 °F 68% 29.86 in 6.2 mi Variable 1.2 mph - N/A   Mostly Cloudy
6:50 AM 64.4 °F 51.8 °F 64% 29.86 in 6.2 mi SE 5.8 mph - N/A   Mostly Cloudy
7:20 AM 64.4 °F 51.8 °F 64% 29.89 in 6.2 mi SE 5.8 mph - N/A   Mostly Cloudy
7:50 AM 66.2 °F 53.6 °F 64% 29.89 in 6.2 mi South 3.5 mph - N/A   Mostly Cloudy
8:20 AM 66.2 °F 53.6 °F 64% 29.89 in 6.2 mi West 3.5 mph - N/A   Mostly Cloudy
8:50 AM 69.8 °F 53.6 °F 56% 29.89 in 6.2 mi ENE 3.5 mph - N/A   Mostly Cloudy
9:00 AM 76 °F 47 °F 24% 29.81 in 12 mi East 8.1 mph - -   Partly Cloudy
9:20 AM 80.6 °F 48.2 °F 32% 29.89 in 6.2 mi NE 6.9 mph - N/A   Mostly Cloudy
9:50 AM 82.4 °F 46.4 °F 28% 29.86 in 6.2 mi ENE 9.2 mph - N/A   Mostly Cloudy
10:00 AM 81 °F 47 °F 20% 29.78 in 12 mi ESE 6.9 mph - -   Scattered Clouds
10:20 AM 80.6 °F 46.4 °F 30% 29.86 in 6.2 mi NE 10.4 mph - N/A   Mostly Cloudy
10:50 AM 84.2 °F 50.0 °F 30% 29.86 in 6.2 mi ENE 12.7 mph - N/A   Mostly Cloudy
11:00 AM 83 °F 44 °F 16% 29.77 in 12 mi ESE 10.4 mph - -   Scattered Clouds
11:20 AM 86.0 °F 48.2 °F 27% 29.83 in 6.2 mi ENE 17.3 mph - N/A   Scattered Clouds
11:50 AM 89.6 °F 42.8 °F 20% 29.83 in 6.2 mi ENE 17.3 mph - N/A   Scattered Clouds
12:00 PM 87 °F 43 °F 12% 29.74 in 12 mi East 13.8 mph - -   Scattered Clouds
12:20 PM 89.6 °F 42.8 °F 20% 29.83 in 6.2 mi ENE 16.1 mph 27.6 mph N/A   Scattered Clouds
12:50 PM 91.4 °F 44.6 °F 20% 29.80 in 6.2 mi NE 16.1 mph - N/A   Mostly Cloudy
1:00 PM 90 °F 43 °F 11% 29.70 in 12 mi East 11.5 mph - -   Scattered Clouds
1:20 PM 89.6 °F 44.6 °F 21% 29.80 in 6.2 mi NE 17.3 mph - N/A   Mostly Cloudy
1:50 PM 89.6 °F 44.6 °F 21% 29.77 in 6.2 mi East 13.8 mph - N/A   Mostly Cloudy
2:00 PM 90 °F 41 °F 10% 29.68 in 12 mi East 11.5 mph - -   Partly Cloudy
2:20 PM 89.6 °F 42.8 °F 20% 29.74 in 6.2 mi NE 13.8 mph - N/A   Mostly Cloudy
2:50 PM 89.6 °F 44.6 °F 21% 29.74 in 6.2 mi ENE 12.7 mph - N/A   Mostly Cloudy
3:00 PM 89 °F 43 °F 12% 29.65 in 12 mi East 6.9 mph - -   Partly Cloudy
3:20 PM 87.8 °F 41.0 °F 19% 29.74 in 6.2 mi ESE 11.5 mph - N/A   Mostly Cloudy
3:50 PM 89.6 °F 35.6 °F 15% 29.77 in 4.3 mi South 25.3 mph 38.0 mph N/A   Widespread Dust
4:00 PM 89 °F 34 °F 7% 29.67 in 12 mi South 21.9 mph - -   Partly Cloudy
4:20 PM 87.8 °F 41.0 °F 19% 29.77 in 6.2 mi South 15.0 mph - N/A   Mostly Cloudy
4:50 PM 87.8 °F 39.2 °F 18% 29.77 in 6.2 mi South 11.5 mph - N/A   Mostly Cloudy
5:00 PM 87 °F 40 °F 11% 29.68 in 12 mi South 8.1 mph - -   Partly Cloudy
5:20 PM 86.0 °F 42.8 °F 22% 29.77 in 6.2 mi ESE 6.9 mph - N/A   Mostly Cloudy
5:50 PM 84.2 °F 42.8 °F 23% 29.77 in 5.0 mi East 8.1 mph - N/A   Mostly Cloudy
6:00 PM 84 °F 44 °F 15% 29.70 in 12 mi ESE 5.8 mph - -   Partly Cloudy
6:20 PM 86.0 °F 41.0 °F 20% 29.80 in 6.2 mi SE 13.8 mph 25.3 mph N/A   Mostly Cloudy
6:50 PM 86.0 °F 41.0 °F 20% 29.80 in 6.2 mi South 12.7 mph - N/A   Mostly Cloudy
7:00 PM 86 °F 39 °F 11% 29.72 in 12 mi South 15.0 mph - -   Partly Cloudy
7:20 PM 84.2 °F 41.0 °F 22% 29.83 in 6.2 mi South 12.7 mph - N/A   Mostly Cloudy
7:50 PM 82.4 °F 41.0 °F 23% 29.83 in 6.2 mi SSE 8.1 mph - N/A   Mostly Cloudy
8:00 PM 81 °F 42 °F 15% 29.74 in 12 mi SSE 4.6 mph - -   Partly Cloudy
8:20 PM 78.8 °F 44.6 °F 30% 29.80 in 6.2 mi East 6.9 mph - N/A   Mostly Cloudy
8:50 PM 78.8 °F 46.4 °F 32% 29.80 in 6.2 mi East 5.8 mph - N/A   Mostly Cloudy
9:00 PM 80 °F 43 °F 17% 29.71 in 12 mi SSW 8.1 mph - -   Partly Cloudy
9:20 PM 78.8 °F 44.6 °F 30% 29.80 in 6.2 mi West 8.1 mph - N/A   Mostly Cloudy
9:50 PM 77.0 °F 46.4 °F 34% 29.83 in 6.2 mi SSW 6.9 mph - N/A   Mostly Cloudy
10:20 PM 75.2 °F 48.2 °F 38% 29.86 in 6.2 mi SW 4.6 mph - N/A   Mostly Cloudy
10:50 PM 73.4 °F 50.0 °F 44% 29.86 in 6.2 mi WSW 4.6 mph - N/A   Mostly Cloudy
11:20 PM 73.4 °F 48.2 °F 41% 29.86 in 6.2 mi SSE 3.5 mph - N/A   Mostly Cloudy
11:50 PM 71.6 °F 51.8 °F 50% 29.86 in 6.2 mi Variable 2.3 mph - N/A   Mostly Cloudy